,,,PA_Meas_PMT16A,,PR_Meas_QMR101_102,,RH_Meas_QMH101,,SR_Meas_QMS101,,TA_Meas_QMH101,,GenWind,,GenWind,
date,time,status,PA,status,PR,status,RH,status,SR,status,TA,status,DirAvg,status,SpdAvg,
2009-09-15, 00:00:04,VALID,1009.18,VALID,0,VALID,98.1282,VALID,0,VALID,24.8049,VALID,80,VALID,0.398047,
2009-09-15, 00:01:04,VALID,1009.12,VALID,0,VALID,98.1206,VALID,0,VALID,24.8049,VALID,79,VALID,0.142969,
2009-09-15, 00:02:04,VALID,1009.09,VALID,0,VALID,98.174,VALID,0,VALID,24.7464,VALID,41,VALID,0.344922,
2009-09-15, 00:03:04,VALID,1009.05,VALID,0,VALID,98.1968,VALID,0,VALID,24.7269,VALID,51,VALID,0.599219,
2009-09-15, 00:04:04,VALID,1008.97,VALID,0,VALID,98.1892,VALID,0,VALID,24.7074,VALID,67,VALID,0.573828,
2009-09-15, 00:05:04,VALID,1008.95,VALID,0,VALID,98.1892,VALID,0,VALID,24.6684,VALID,64,VALID,0.95,
2009-09-15, 00:06:04,VALID,1008.92,VALID,0,VALID,98.2045,VALID,0,VALID,24.6489,VALID,55,VALID,0.964063,
2009-09-15, 00:07:04,VALID,1008.87,VALID,0,VALID,98.1892,VALID,0,VALID,24.6276,VALID,46,VALID,0.701172,
2009-09-15, 00:08:04,VALID,1008.85,VALID,0,VALID,98.1968,VALID,0,VALID,24.6294,VALID,27,VALID,0.514453,
2009-09-15, 00:09:04,VALID,1008.82,VALID,0,VALID,98.2121,VALID,0,VALID,24.6099,VALID,51,VALID,0.610547,
2009-09-15, 00:10:04,VALID,1008.8,VALID,0,VALID,98.1816,VALID,0,VALID,24.571,VALID,75,VALID,0.778906,
2009-09-15, 00:11:04,VALID,1008.8,VALID,0,VALID,98.1816,VALID,0,VALID,24.5905,VALID,61,VALID,0.55,
2009-09-15, 00:12:04,VALID,1008.78,VALID,0,VALID,98.1968,VALID,0,VALID,24.571,VALID,71,VALID,0.569531,
2009-09-15, 00:13:04,VALID,1008.75,VALID,0,VALID,98.1968,VALID,0,VALID,24.5515,VALID,72,VALID,0.233203,
2009-09-15, 00:14:04,VALID,1008.74,VALID,0,VALID,98.2121,VALID,0,VALID,24.532,VALID,32,VALID,0.548828,
2009-09-15, 00:15:04,VALID,1008.75,VALID,0,VALID,98.2121,VALID,0,VALID,24.5125,VALID,28,VALID,0.371875,
2009-09-15, 00:16:04,VALID,1008.73,VALID,0,VALID,98.1968,VALID,0,VALID,24.5125,VALID,45,VALID,0.457422,
2009-09-15, 00:17:04,VALID,1008.73,VALID,0,VALID,98.2045,VALID,0,VALID,24.493,VALID,65,VALID,0.925,
2009-09-15, 00:18:04,VALID,1008.72,VALID,0,VALID,98.1968,VALID,0,VALID,24.4735,VALID,47,VALID,0.484766,
2009-09-15, 00:19:04,VALID,1008.72,VALID,0,VALID,98.1892,VALID,0,VALID,24.4735,VALID,47,VALID,0.123438,
2009-09-15, 00:20:04,VALID,1008.73,VALID,0,VALID,98.1892,VALID,0,VALID,24.4735,VALID,62,VALID,0.309766,
2009-09-15, 00:21:04,VALID,1008.73,VALID,0,VALID,98.1816,VALID,0,VALID,24.4735,VALID,59,VALID,0.353516,
2009-09-15, 00:22:04,VALID,1008.74,VALID,0,VALID,98.1968,VALID,0,VALID,24.454,VALID,49,VALID,0.198437,
2009-09-15, 00:23:04,VALID,1008.78,VALID,0,VALID,98.1968,VALID,0,VALID,24.454,VALID,22,VALID,0.512891,
2009-09-15, 00:24:04,VALID,1008.75,VALID,0,VALID,98.2121,VALID,0,VALID,24.4345,VALID,21,VALID,0,
2009-09-15, 00:25:04,VALID,1008.78,VALID,0,VALID,98.174,VALID,0,VALID,24.454,VALID,21,VALID,0.00078125,
2009-09-15, 00:26:04,VALID,1008.78,VALID,0,VALID,98.174,VALID,0,VALID,24.454,VALID,21,VALID,0.269141,
2009-09-15, 00:27:04,VALID,1008.77,VALID,0,VALID,98.1892,VALID,0,VALID,24.454,VALID,21,VALID,0.33125,
2009-09-15, 00:28:04,VALID,1008.78,VALID,0,VALID,98.1587,VALID,0.105969,VALID,24.493,VALID,21,VALID,0.190625,
2009-09-15, 00:29:04,VALID,1008.79,VALID,0,VALID,98.1587,VALID,0.105969,VALID,24.493,VALID,18,VALID,0,
2009-09-15, 00:30:04,VALID,1008.75,VALID,0,VALID,98.1511,VALID,0.105969,VALID,24.4717,VALID,341,VALID,0,
2009-09-15, 00:31:04,VALID,1008.73,VALID,0,VALID,98.1511,VALID,0.105969,VALID,24.5125,VALID,335,VALID,0,
2009-09-15, 00:32:04,VALID,1008.72,VALID,0,VALID,98.1511,VALID,0.105969,VALID,24.5125,VALID,327,VALID,0.102344,
2009-09-15, 00:33:04,VALID,1008.67,VALID,0,VALID,98.1663,VALID,0.105969,VALID,24.4911,VALID,313,VALID,0.359766,
2009-09-15, 00:34:04,VALID,1008.66,VALID,0,VALID,98.1816,VALID,0.105969,VALID,24.5125,VALID,307,VALID,0.422656,
2009-09-15, 00:35:04,VALID,1008.64,VALID,0,VALID,98.1663,VALID,0.105969,VALID,24.5125,VALID,294,VALID,0.714063,
2009-09-15, 00:36:04,VALID,1008.61,VALID,0,VALID,98.1511,VALID,0.105969,VALID,24.5125,VALID,291,VALID,0.348828,
2009-09-15, 00:37:04,VALID,1008.6,VALID,0,VALID,98.1663,VALID,0.105969,VALID,24.4911,VALID,337,VALID,0.619922,
2009-09-15, 00:38:04,VALID,1008.6,VALID,0,VALID,98.1968,VALID,0.105969,VALID,24.4717,VALID,337,VALID,0.236328,
2009-09-15, 00:39:04,VALID,1008.58,VALID,0,VALID,98.174,VALID,0.105969,VALID,24.493,VALID,338,VALID,0.0867188,
2009-09-15, 00:40:04,VALID,1008.54,VALID,0,VALID,98.174,VALID,0.105969,VALID,24.4717,VALID,338,VALID,0,
2009-09-15, 00:41:04,VALID,1008.56,VALID,0,VALID,98.1816,VALID,0.105969,VALID,24.4717,VALID,41,VALID,0.353906,
2009-09-15, 00:42:04,VALID,1008.54,VALID,0,VALID,98.2045,VALID,0.105969,VALID,24.4522,VALID,41,VALID,0.107422,
2009-09-15, 00:43:04,VALID,1008.54,VALID,0,VALID,98.1892,VALID,0.105969,VALID,24.493,VALID,41,VALID,0.00234375,
2009-09-15, 00:44:04,VALID,1008.54,VALID,0,VALID,98.1663,VALID,0.105969,VALID,24.4522,VALID,41,VALID,0,
2009-09-15, 00:45:04,VALID,1008.52,VALID,0,VALID,98.1587,VALID,0.105969,VALID,24.5125,VALID,41,VALID,0.0785156,
2009-09-15, 00:46:04,VALID,1008.49,VALID,0,VALID,98.1434,VALID,0.105969,VALID,24.532,VALID,40,VALID,0.0179687,
2009-09-15, 00:47:04,VALID,1008.48,VALID,0,VALID,98.174,VALID,0.105969,VALID,24.4911,VALID,330,VALID,0.407813,
2009-09-15, 00:48:04,VALID,1008.45,VALID,0,VALID,98.174,VALID,0.105969,VALID,24.5125,VALID,330,VALID,0.358984,
2009-09-15, 00:49:04,VALID,1008.46,VALID,0,VALID,98.1663,VALID,0.105969,VALID,24.4717,VALID,341,VALID,0.558984,
2009-09-15, 00:50:04,VALID,1008.44,VALID,0,VALID,98.1816,VALID,0,VALID,24.4717,VALID,346,VALID,0.13125,
2009-09-15, 00:51:04,VALID,1008.44,VALID,0,VALID,98.1816,VALID,0.105969,VALID,24.4735,VALID,346,VALID,0,
2009-09-15, 00:52:04,VALID,1008.45,VALID,0,VALID,98.174,VALID,0.105969,VALID,24.4717,VALID,346,VALID,0,
2009-09-15, 00:53:04,VALID,1008.43,VALID,0,VALID,98.174,VALID,0.105969,VALID,24.4717,VALID,346,VALID,0,
2009-09-15, 00:54:04,VALID,1008.4,VALID,0,VALID,98.1587,VALID,0.105969,VALID,24.4717,VALID,346,VALID,0,
2009-09-15, 00:55:04,VALID,1008.45,VALID,0,VALID,98.174,VALID,0.105969,VALID,24.4911,VALID,346,VALID,0,
2009-09-15, 00:56:04,VALID,1008.43,VALID,0,VALID,98.1816,VALID,0.105969,VALID,24.493,VALID,346,VALID,0,
2009-09-15, 00:57:04,VALID,1008.39,VALID,0,VALID,98.1663,VALID,0.105969,VALID,24.4717,VALID,346,VALID,0,
2009-09-15, 00:58:04,VALID,1008.37,VALID,0,VALID,98.1511,VALID,0,VALID,24.493,VALID,346,VALID,0,
2009-09-15, 00:59:04,VALID,1008.36,VALID,0,VALID,98.1663,VALID,0,VALID,24.493,VALID,346,VALID,0,
2009-09-15, 01:00:04,VALID,1008.31,VALID,0,VALID,98.1511,VALID,0,VALID,24.5144,VALID,346,VALID,0,
2009-09-15, 01:01:04,VALID,1008.33,VALID,0,VALID,98.1663,VALID,0,VALID,24.5144,VALID,346,VALID,0,
2009-09-15, 01:02:04,VALID,1008.33,VALID,0,VALID,98.174,VALID,0,VALID,24.493,VALID,346,VALID,0,
2009-09-15, 01:03:04,VALID,1008.33,VALID,0,VALID,98.1892,VALID,0,VALID,24.493,VALID,346,VALID,0,
2009-09-15, 01:04:04,VALID,1008.34,VALID,0,VALID,98.174,VALID,0,VALID,24.4735,VALID,360,VALID,0,
2009-09-15, 01:05:04,VALID,1008.32,VALID,0,VALID,98.1663,VALID,0,VALID,24.4949,VALID,43,VALID,0,
2009-09-15, 01:06:04,VALID,1008.3,VALID,0,VALID,98.1816,VALID,0,VALID,24.4735,VALID,43,VALID,0,
2009-09-15, 01:07:04,VALID,1008.29,VALID,0,VALID,98.174,VALID,0,VALID,24.4735,VALID,43,VALID,0,
2009-09-15, 01:08:04,VALID,1008.3,VALID,0,VALID,98.1968,VALID,0,VALID,24.4949,VALID,43,VALID,0,
2009-09-15, 01:09:04,VALID,1008.3,VALID,0,VALID,98.174,VALID,0,VALID,24.493,VALID,43,VALID,0,
2009-09-15, 01:10:04,VALID,1008.33,VALID,0,VALID,98.1511,VALID,0,VALID,24.5125,VALID,43,VALID,0,
2009-09-15, 01:11:04,VALID,1008.33,VALID,0,VALID,98.1434,VALID,0,VALID,24.5338,VALID,43,VALID,0,
2009-09-15, 01:12:04,VALID,1008.4,VALID,0,VALID,98.1358,VALID,0,VALID,24.532,VALID,43,VALID,0,
2009-09-15, 01:13:04,VALID,1008.41,VALID,0,VALID,98.1511,VALID,0.105969,VALID,24.571,VALID,43,VALID,0,
2009-09-15, 01:14:04,VALID,1008.47,VALID,0,VALID,98.1434,VALID,0.105969,VALID,24.571,VALID,43,VALID,0,
2009-09-15, 01:15:04,VALID,1008.5,VALID,0,VALID,98.1129,VALID,0.105969,VALID,24.5905,VALID,43,VALID,0,
2009-09-15, 01:16:04,VALID,1008.54,VALID,0,VALID,98.1434,VALID,0.105969,VALID,24.5905,VALID,43,VALID,0,
2009-09-15, 01:17:04,VALID,1008.53,VALID,0,VALID,98.1358,VALID,0.105969,VALID,24.5691,VALID,43,VALID,0,
2009-09-15, 01:18:04,VALID,1008.57,VALID,0,VALID,98.1129,VALID,0,VALID,24.6294,VALID,43,VALID,0,
2009-09-15, 01:19:04,VALID,1008.55,VALID,0,VALID,98.1282,VALID,0.105969,VALID,24.6276,VALID,44,VALID,0,
2009-09-15, 01:20:04,VALID,1008.57,VALID,0,VALID,98.1206,VALID,0,VALID,24.6684,VALID,44,VALID,0,
2009-09-15, 01:21:04,VALID,1008.51,VALID,0,VALID,98.1434,VALID,0,VALID,24.6276,VALID,98,VALID,0,
2009-09-15, 01:22:04,VALID,1008.51,VALID,0,VALID,98.1511,VALID,0.105969,VALID,24.5905,VALID,98,VALID,0,
2009-09-15, 01:23:04,VALID,1008.45,VALID,0,VALID,98.174,VALID,0,VALID,24.5905,VALID,98,VALID,0,
2009-09-15, 01:24:04,VALID,1008.39,VALID,0.5,VALID,98.1663,VALID,0.105969,VALID,24.5905,VALID,98,VALID,0,
2009-09-15, 01:25:04,VALID,1008.35,VALID,0,VALID,98.174,VALID,0.105969,VALID,24.571,VALID,98,VALID,0,
2009-09-15, 01:26:04,VALID,1008.31,VALID,0,VALID,98.1968,VALID,0.105969,VALID,24.5691,VALID,98,VALID,0,
2009-09-15, 01:27:04,VALID,1008.27,VALID,0,VALID,98.1892,VALID,0,VALID,24.5496,VALID,98,VALID,0,
2009-09-15, 01:28:04,VALID,1008.28,VALID,0,VALID,98.1663,VALID,0,VALID,24.5905,VALID,98,VALID,0,
2009-09-15, 01:29:04,VALID,1008.25,VALID,0,VALID,98.1587,VALID,0,VALID,24.571,VALID,98,VALID,0,
2009-09-15, 01:30:04,VALID,1008.2,VALID,0,VALID,98.1816,VALID,0,VALID,24.571,VALID,98,VALID,0,
2009-09-15, 01:31:04,VALID,1008.18,VALID,0,VALID,98.1587,VALID,0,VALID,24.571,VALID,98,VALID,0,
2009-09-15, 01:32:04,VALID,1008.14,VALID,0,VALID,98.1816,VALID,0,VALID,24.571,VALID,98,VALID,0,
2009-09-15, 01:33:04,VALID,1008.1,VALID,0,VALID,98.1587,VALID,0.105969,VALID,24.5905,VALID,98,VALID,0,
2009-09-15, 01:34:04,VALID,1008.1,VALID,0,VALID,98.1663,VALID,0,VALID,24.5905,VALID,98,VALID,0,
2009-09-15, 01:35:04,VALID,1008.08,VALID,0,VALID,98.1587,VALID,0,VALID,24.5905,VALID,98,VALID,0,
2009-09-15, 01:36:04,VALID,1008.06,VALID,0,VALID,98.1434,VALID,0,VALID,24.5691,VALID,98,VALID,0,
2009-09-15, 01:37:04,VALID,1008.08,VALID,0,VALID,98.1434,VALID,0,VALID,24.5905,VALID,98,VALID,0,
2009-09-15, 01:38:04,VALID,1008.06,VALID,0,VALID,98.1587,VALID,0,VALID,24.6313,VALID,98,VALID,0,
2009-09-15, 01:39:04,VALID,1008.08,VALID,0,VALID,98.1434,VALID,0,VALID,24.6099,VALID,98,VALID,0,
2009-09-15, 01:40:04,VALID,1008.08,VALID,0,VALID,98.1511,VALID,0,VALID,24.5691,VALID,98,VALID,0,
2009-09-15, 01:41:04,VALID,1008.06,VALID,0,VALID,98.174,VALID,0,VALID,24.5905,VALID,112,VALID,0,
2009-09-15, 01:42:04,VALID,1008.05,VALID,0,VALID,98.174,VALID,0.105969,VALID,24.571,VALID,116,VALID,0,
2009-09-15, 01:43:04,VALID,1008.05,VALID,0,VALID,98.174,VALID,0,VALID,24.571,VALID,133,VALID,0.569922,
2009-09-15, 01:44:04,VALID,1008.05,VALID,0,VALID,98.174,VALID,0,VALID,24.532,VALID,145,VALID,0.620313,
2009-09-15, 01:45:04,VALID,1008.09,VALID,0,VALID,98.174,VALID,0,VALID,24.5301,VALID,142,VALID,0.670703,
2009-09-15, 01:46:04,VALID,1008.11,VALID,0,VALID,98.1663,VALID,0.105969,VALID,24.571,VALID,123,VALID,0.587891,
2009-09-15, 01:47:04,VALID,1008.07,VALID,0,VALID,98.1511,VALID,0,VALID,24.5496,VALID,122,VALID,0.410547,
2009-09-15, 01:48:04,VALID,1008.12,VALID,0,VALID,98.1587,VALID,0.105969,VALID,24.5905,VALID,122,VALID,0.750781,
2009-09-15, 01:49:04,VALID,1008.12,VALID,0,VALID,98.1511,VALID,0,VALID,24.571,VALID,123,VALID,0.550781,
2009-09-15, 01:50:04,VALID,1008.15,VALID,0,VALID,98.1663,VALID,0,VALID,24.571,VALID,123,VALID,0.468359,
2009-09-15, 01:51:04,VALID,1008.14,VALID,0,VALID,98.1587,VALID,0,VALID,24.6099,VALID,123,VALID,0.532031,
2009-09-15, 01:52:04,VALID,1008.17,VALID,0,VALID,98.1434,VALID,0,VALID,24.5905,VALID,123,VALID,0.426953,
2009-09-15, 01:53:04,VALID,1008.17,VALID,0,VALID,98.1816,VALID,0,VALID,24.5905,VALID,104,VALID,0.774609,
2009-09-15, 01:54:04,VALID,1008.18,VALID,0,VALID,98.1816,VALID,0,VALID,24.571,VALID,98,VALID,0.63125,
2009-09-15, 01:55:04,VALID,1008.21,VALID,0,VALID,98.1587,VALID,0.105969,VALID,24.571,VALID,87,VALID,0.858594,
2009-09-15, 01:56:04,VALID,1008.21,VALID,0,VALID,98.1587,VALID,0,VALID,24.5905,VALID,90,VALID,0.896484,
2009-09-15, 01:57:04,VALID,1008.22,VALID,0,VALID,98.2045,VALID,0,VALID,24.5515,VALID,90,VALID,0.858203,
2009-09-15, 01:58:04,VALID,1008.24,VALID,0,VALID,98.1892,VALID,0,VALID,24.5515,VALID,75,VALID,0.623828,
2009-09-15, 01:59:04,VALID,1008.24,VALID,0,VALID,98.1816,VALID,0,VALID,24.571,VALID,72,VALID,0.589063,
2009-09-15, 02:00:04,VALID,1008.23,VALID,0,VALID,98.1968,VALID,0.105969,VALID,24.5301,VALID,40,VALID,0.473828,
2009-09-15, 02:01:04,VALID,1008.24,VALID,0,VALID,98.2121,VALID,0,VALID,24.5515,VALID,28,VALID,0.595312,
2009-09-15, 02:02:04,VALID,1008.24,VALID,0,VALID,98.2121,VALID,0,VALID,24.5301,VALID,16,VALID,0.429688,
2009-09-15, 02:03:04,VALID,1008.23,VALID,0,VALID,98.2197,VALID,0,VALID,24.5515,VALID,346,VALID,0.569531,
2009-09-15, 02:04:04,VALID,1008.23,VALID,0,VALID,98.1816,VALID,0.105969,VALID,24.571,VALID,346,VALID,0.590625,
2009-09-15, 02:05:04,VALID,1008.2,VALID,0,VALID,98.1587,VALID,0,VALID,24.5496,VALID,356,VALID,0.646484,
2009-09-15, 02:06:04,VALID,1008.21,VALID,0,VALID,98.1663,VALID,0,VALID,24.5496,VALID,5,VALID,0.518359,
2009-09-15, 02:07:04,VALID,1008.22,VALID,0,VALID,98.1663,VALID,0,VALID,24.571,VALID,5,VALID,0.629297,
2009-09-15, 02:08:04,VALID,1008.26,VALID,0,VALID,98.1816,VALID,0,VALID,24.571,VALID,5,VALID,0.335547,
2009-09-15, 02:09:04,VALID,1008.25,VALID,0,VALID,98.1892,VALID,0,VALID,24.5301,VALID,5,VALID,0.0105469,
2009-09-15, 02:10:04,VALID,1008.22,VALID,0,VALID,98.2045,VALID,0,VALID,24.571,VALID,5,VALID,0.152344,
2009-09-15, 02:11:04,VALID,1008.26,VALID,0,VALID,98.174,VALID,0,VALID,24.571,VALID,5,VALID,0.00585938,
2009-09-15, 02:12:04,VALID,1008.28,VALID,0,VALID,98.174,VALID,0,VALID,24.5496,VALID,5,VALID,0,
2009-09-15, 02:13:04,VALID,1008.28,VALID,0,VALID,98.1663,VALID,0,VALID,24.5728,VALID,5,VALID,0,
2009-09-15, 02:14:04,VALID,1008.3,VALID,0,VALID,98.1663,VALID,0,VALID,24.5923,VALID,5,VALID,0,
2009-09-15, 02:15:04,VALID,1008.32,VALID,0,VALID,98.1816,VALID,0,VALID,24.5942,VALID,5,VALID,0,
2009-09-15, 02:16:04,VALID,1008.31,VALID,0,VALID,98.1511,VALID,0,VALID,24.5923,VALID,5,VALID,0,
2009-09-15, 02:17:04,VALID,1008.32,VALID,0,VALID,98.1663,VALID,0,VALID,24.571,VALID,39,VALID,0.210547,
2009-09-15, 02:18:04,VALID,1008.32,VALID,0,VALID,98.1663,VALID,0,VALID,24.5923,VALID,39,VALID,0.0105469,
2009-09-15, 02:19:04,VALID,1008.3,VALID,0,VALID,98.1587,VALID,0,VALID,24.5923,VALID,39,VALID,0.341406,
2009-09-15, 02:20:04,VALID,1008.31,VALID,0,VALID,98.1663,VALID,0,VALID,24.571,VALID,47,VALID,0.468359,
2009-09-15, 02:21:04,VALID,1008.28,VALID,0,VALID,98.1816,VALID,0,VALID,24.5728,VALID,79,VALID,0.503906,
2009-09-15, 02:22:04,VALID,1008.25,VALID,0,VALID,98.1816,VALID,0,VALID,24.5728,VALID,86,VALID,0.439453,
2009-09-15, 02:23:04,VALID,1008.24,VALID,0,VALID,98.1892,VALID,0,VALID,24.5533,VALID,85,VALID,0.374609,
2009-09-15, 02:24:04,VALID,1008.21,VALID,0,VALID,98.1968,VALID,0,VALID,24.5533,VALID,86,VALID,0.337891,
2009-09-15, 02:25:04,VALID,1008.21,VALID,0,VALID,98.1892,VALID,0,VALID,24.5728,VALID,85,VALID,0.0304688,
2009-09-15, 02:26:04,VALID,1008.18,VALID,0,VALID,98.174,VALID,0,VALID,24.5923,VALID,86,VALID,0.391797,
2009-09-15, 02:27:04,VALID,1008.16,VALID,0,VALID,98.1816,VALID,0,VALID,24.5923,VALID,90,VALID,0.215625,
2009-09-15, 02:28:04,VALID,1008.11,VALID,0,VALID,98.1816,VALID,0,VALID,24.5905,VALID,90,VALID,0.100781,
2009-09-15, 02:29:04,VALID,1008.09,VALID,0,VALID,98.1587,VALID,0,VALID,24.5905,VALID,94,VALID,0.448047,
2009-09-15, 02:30:04,VALID,1008.07,VALID,0,VALID,98.1816,VALID,0.105969,VALID,24.5905,VALID,102,VALID,0.735156,
2009-09-15, 02:31:04,VALID,1008.04,VALID,0,VALID,98.1968,VALID,0,VALID,24.571,VALID,102,VALID,0.707422,
2009-09-15, 02:32:04,VALID,1008.04,VALID,0,VALID,98.174,VALID,0.105969,VALID,24.571,VALID,89,VALID,0.526172,
2009-09-15, 02:33:04,VALID,1008.06,VALID,0,VALID,98.1968,VALID,0,VALID,24.571,VALID,110,VALID,0.705469,
2009-09-15, 02:34:04,VALID,1008.06,VALID,0,VALID,98.1968,VALID,0,VALID,24.5301,VALID,103,VALID,0.279687,
2009-09-15, 02:35:04,VALID,1008.05,VALID,0,VALID,98.1892,VALID,0.105969,VALID,24.5496,VALID,71,VALID,0.336719,
2009-09-15, 02:36:04,VALID,1008.04,VALID,0,VALID,98.1816,VALID,0.105969,VALID,24.5905,VALID,71,VALID,0.43125,
2009-09-15, 02:37:04,VALID,1008.05,VALID,0,VALID,98.1892,VALID,0,VALID,24.5905,VALID,74,VALID,0.364844,
2009-09-15, 02:38:04,VALID,1007.97,VALID,0,VALID,98.2197,VALID,0,VALID,24.5496,VALID,74,VALID,0.495313,
2009-09-15, 02:39:04,VALID,1008,VALID,0,VALID,98.2045,VALID,0.105969,VALID,24.571,VALID,74,VALID,0.809766,
2009-09-15, 02:40:04,VALID,1008.01,VALID,0,VALID,98.1968,VALID,0.105969,VALID,24.5515,VALID,55,VALID,0.895703,
2009-09-15, 02:41:04,VALID,1007.98,VALID,0,VALID,98.1892,VALID,0,VALID,24.5496,VALID,35,VALID,0.797266,
2009-09-15, 02:42:04,VALID,1007.96,VALID,0,VALID,98.1968,VALID,0.105969,VALID,24.5905,VALID,34,VALID,0.0195313,
2009-09-15, 02:43:04,VALID,1007.94,VALID,0,VALID,98.2121,VALID,0,VALID,24.571,VALID,14,VALID,0,
2009-09-15, 02:44:04,VALID,1007.92,VALID,0,VALID,98.1892,VALID,0,VALID,24.571,VALID,90,VALID,0,
2009-09-15, 02:45:04,VALID,1007.87,VALID,0,VALID,98.2197,VALID,0,VALID,24.532,VALID,86,VALID,0,
2009-09-15, 02:46:04,VALID,1007.86,VALID,0,VALID,98.2121,VALID,0,VALID,24.532,VALID,86,VALID,0,
2009-09-15, 02:47:04,VALID,1007.83,VALID,0,VALID,98.1968,VALID,0,VALID,24.532,VALID,86,VALID,0,
2009-09-15, 02:48:04,VALID,1007.79,VALID,0,VALID,98.2045,VALID,0,VALID,24.532,VALID,85,VALID,0,
2009-09-15, 02:49:04,VALID,1007.8,VALID,0,VALID,98.2045,VALID,0,VALID,24.5125,VALID,85,VALID,0,
2009-09-15, 02:50:04,VALID,1007.78,VALID,0,VALID,98.2197,VALID,0,VALID,24.5125,VALID,85,VALID,0,
2009-09-15, 02:51:04,VALID,1007.78,VALID,0,VALID,98.235,VALID,0.105969,VALID,24.5125,VALID,85,VALID,0,
2009-09-15, 02:52:04,VALID,1007.73,VALID,0,VALID,98.2045,VALID,0,VALID,24.5125,VALID,85,VALID,0,
2009-09-15, 02:53:04,VALID,1007.74,VALID,0,VALID,98.1968,VALID,0,VALID,24.5125,VALID,85,VALID,0,
2009-09-15, 02:54:04,VALID,1007.74,VALID,0,VALID,98.2045,VALID,0,VALID,24.5125,VALID,85,VALID,0,
2009-09-15, 02:55:04,VALID,1007.75,VALID,0,VALID,98.2045,VALID,0,VALID,24.5125,VALID,85,VALID,0,
2009-09-15, 02:56:04,VALID,1007.75,VALID,0,VALID,98.1968,VALID,0.105969,VALID,24.5106,VALID,85,VALID,0,
2009-09-15, 02:57:04,VALID,1007.76,VALID,0,VALID,98.1968,VALID,0,VALID,24.5125,VALID,85,VALID,0,
2009-09-15, 02:58:04,VALID,1007.78,VALID,0,VALID,98.1892,VALID,0,VALID,24.5125,VALID,85,VALID,0,
2009-09-15, 02:59:04,VALID,1007.81,VALID,0,VALID,98.1968,VALID,0,VALID,24.532,VALID,85,VALID,0,
2009-09-15, 03:00:04,VALID,1007.82,VALID,0,VALID,98.2121,VALID,0,VALID,24.532,VALID,85,VALID,0,
2009-09-15, 03:01:04,VALID,1007.87,VALID,0,VALID,98.1892,VALID,0,VALID,24.532,VALID,85,VALID,0,
2009-09-15, 03:02:04,VALID,1007.89,VALID,0,VALID,98.1892,VALID,0.105969,VALID,24.532,VALID,85,VALID,0,
2009-09-15, 03:03:04,VALID,1007.95,VALID,0,VALID,98.1816,VALID,0.105969,VALID,24.532,VALID,85,VALID,0,
2009-09-15, 03:04:04,VALID,1007.95,VALID,0,VALID,98.1816,VALID,0,VALID,24.5106,VALID,85,VALID,0,
2009-09-15, 03:05:04,VALID,1007.99,VALID,0,VALID,98.1816,VALID,0,VALID,24.5301,VALID,85,VALID,0,
2009-09-15, 03:06:04,VALID,1007.96,VALID,0,VALID,98.1892,VALID,0.105969,VALID,24.532,VALID,85,VALID,0,
2009-09-15, 03:07:04,VALID,1007.99,VALID,0,VALID,98.1816,VALID,0,VALID,24.532,VALID,85,VALID,0,
2009-09-15, 03:08:04,VALID,1007.94,VALID,0,VALID,98.1968,VALID,0,VALID,24.532,VALID,85,VALID,0,
2009-09-15, 03:09:04,VALID,1007.95,VALID,0,VALID,98.2045,VALID,0,VALID,24.532,VALID,85,VALID,0,
2009-09-15, 03:10:04,VALID,1007.96,VALID,0,VALID,98.1892,VALID,0.105969,VALID,24.532,VALID,69,VALID,0,
2009-09-15, 03:11:04,VALID,1007.96,VALID,0,VALID,98.1892,VALID,0,VALID,24.532,VALID,14,VALID,0,
2009-09-15, 03:12:04,VALID,1007.99,VALID,0,VALID,98.1892,VALID,0,VALID,24.532,VALID,14,VALID,0,
2009-09-15, 03:13:04,VALID,1008.02,VALID,0,VALID,98.1892,VALID,0,VALID,24.5125,VALID,14,VALID,0,
2009-09-15, 03:14:04,VALID,1008.02,VALID,0,VALID,98.1892,VALID,0,VALID,24.5533,VALID,14,VALID,0,
2009-09-15, 03:15:04,VALID,1008.04,VALID,0,VALID,98.1892,VALID,0,VALID,24.5533,VALID,13,VALID,0,
2009-09-15, 03:16:04,VALID,1008.06,VALID,0,VALID,98.1816,VALID,0,VALID,24.5533,VALID,13,VALID,0,
2009-09-15, 03:17:04,VALID,1008.06,VALID,0,VALID,98.1663,VALID,0,VALID,24.5728,VALID,13,VALID,0,
2009-09-15, 03:18:04,VALID,1008.1,VALID,0,VALID,98.1587,VALID,0,VALID,24.5515,VALID,13,VALID,0,
2009-09-15, 03:19:04,VALID,1008.13,VALID,0,VALID,98.1892,VALID,0,VALID,24.5728,VALID,13,VALID,0,
2009-09-15, 03:20:04,VALID,1008.13,VALID,0,VALID,98.1587,VALID,0,VALID,24.6118,VALID,13,VALID,0,
2009-09-15, 03:21:04,VALID,1008.1,VALID,0,VALID,98.1282,VALID,0,VALID,24.6313,VALID,13,VALID,0,
2009-09-15, 03:22:04,VALID,1008.13,VALID,0,VALID,98.1358,VALID,0,VALID,24.6508,VALID,238,VALID,0,
2009-09-15, 03:23:04,VALID,1008.1,VALID,0,VALID,98.174,VALID,0,VALID,24.6118,VALID,227,VALID,0,
2009-09-15, 03:24:04,VALID,1008.15,VALID,0,VALID,98.1816,VALID,0,VALID,24.5905,VALID,227,VALID,0,
2009-09-15, 03:25:04,VALID,1008.16,VALID,0,VALID,98.1816,VALID,0,VALID,24.6099,VALID,227,VALID,0,
2009-09-15, 03:26:04,VALID,1008.15,VALID,0,VALID,98.174,VALID,0,VALID,24.6313,VALID,212,VALID,0.6375,
2009-09-15, 03:27:04,VALID,1008.16,VALID,0,VALID,98.1663,VALID,0,VALID,24.6118,VALID,225,VALID,0.332812,
2009-09-15, 03:28:04,VALID,1008.19,VALID,0,VALID,98.1663,VALID,0,VALID,24.6294,VALID,225,VALID,0.157422,
2009-09-15, 03:29:04,VALID,1008.21,VALID,0,VALID,98.1434,VALID,0,VALID,24.6489,VALID,225,VALID,0.333594,
2009-09-15, 03:30:04,VALID,1008.26,VALID,0,VALID,98.1282,VALID,0,VALID,24.6471,VALID,225,VALID,0.273828,
2009-09-15, 03:31:04,VALID,1008.24,VALID,0,VALID,98.1053,VALID,0.105969,VALID,24.686,VALID,225,VALID,0.382422,
2009-09-15, 03:32:04,VALID,1008.27,VALID,0,VALID,98.1358,VALID,0.105969,VALID,24.6666,VALID,225,VALID,0.170312,
2009-09-15, 03:33:04,VALID,1008.28,VALID,0,VALID,98.1511,VALID,0.105969,VALID,24.7074,VALID,225,VALID,0.105469,
2009-09-15, 03:34:04,VALID,1008.29,VALID,0,VALID,98.1511,VALID,0.105969,VALID,24.7269,VALID,225,VALID,0.0527344,
2009-09-15, 03:35:04,VALID,1008.28,VALID,0,VALID,98.1358,VALID,0,VALID,24.7269,VALID,225,VALID,0,
2009-09-15, 03:36:04,VALID,1008.28,VALID,0,VALID,98.1434,VALID,0.105969,VALID,24.7269,VALID,225,VALID,0.0398437,
2009-09-15, 03:37:04,VALID,1008.27,VALID,0,VALID,98.1511,VALID,0,VALID,24.7269,VALID,227,VALID,0.316797,
2009-09-15, 03:38:04,VALID,1008.27,VALID,0,VALID,98.1663,VALID,0,VALID,24.7055,VALID,227,VALID,0.0882813,
2009-09-15, 03:39:04,VALID,1008.26,VALID,0,VALID,98.1663,VALID,0.105969,VALID,24.7464,VALID,227,VALID,0.0222656,
2009-09-15, 03:40:04,VALID,1008.24,VALID,0,VALID,98.1434,VALID,0,VALID,24.7464,VALID,312,VALID,0.452734,
2009-09-15, 03:41:04,VALID,1008.24,VALID,0,VALID,98.174,VALID,0,VALID,24.7464,VALID,340,VALID,0.336719,
2009-09-15, 03:42:04,VALID,1008.22,VALID,0,VALID,98.1892,VALID,0,VALID,24.7464,VALID,340,VALID,0.172656,
2009-09-15, 03:43:04,VALID,1008.25,VALID,0,VALID,98.1587,VALID,0.105969,VALID,24.7464,VALID,340,VALID,0.216406,
2009-09-15, 03:44:04,VALID,1008.28,VALID,0,VALID,98.235,VALID,0.105969,VALID,24.6666,VALID,302,VALID,0.776953,
2009-09-15, 03:45:04,VALID,1008.29,VALID,0,VALID,98.235,VALID,0.105969,VALID,24.6684,VALID,305,VALID,0.864844,
2009-09-15, 03:46:04,VALID,1008.3,VALID,0,VALID,98.235,VALID,0.105969,VALID,24.6471,VALID,282,VALID,0.258203,
2009-09-15, 03:47:04,VALID,1008.33,VALID,0,VALID,98.2502,VALID,0,VALID,24.6489,VALID,284,VALID,0.796094,
2009-09-15, 03:48:04,VALID,1008.31,VALID,0,VALID,98.2502,VALID,0,VALID,24.6276,VALID,264,VALID,0.59375,